contact:dominique.lefevre@mio.osupytheas.fr, maurice.libes@osupytheas.fr, didier.mallarino@osupytheas.fr
Project:EMSO http://www.emso-fr.org/EMSO-France
Depth: 2436.0 m
Title:EMSO Ligure Ouest : Data MII capteur MICROCAT
DateTime_Computer,Latitude,Longitude,Temperature,Conductivity,Pressure,DateTime_Instrument
DateTime_Computer,Latitude,Longitude,degC,S m-1,dbar,DateTime_Instrument
2022-04-13T00:02:59Z,42.805,6.029,13.2996,4.60033,2470.46,2022-4-13T02:04:37Z
2022-04-13T00:06:02Z,42.805,6.029,13.2998,4.60033,2470.437,2022-4-13T02:07:40Z
2022-04-13T00:09:05Z,42.805,6.029,13.2997,4.60031,2470.45,2022-4-13T02:10:43Z
2022-04-13T00:12:08Z,42.805,6.029,13.2999,4.60032,2470.437,2022-4-13T02:13:46Z
2022-04-13T00:15:11Z,42.805,6.029,13.2998,4.60033,2470.45,2022-4-13T02:16:49Z
2022-04-13T00:18:14Z,42.805,6.029,13.2998,4.60033,2470.474,2022-4-13T02:19:53Z
2022-04-13T00:21:17Z,42.805,6.029,13.3000,4.60033,2470.437,2022-4-13T02:22:56Z
2022-04-13T00:24:21Z,42.805,6.029,13.2998,4.60032,2470.45,2022-4-13T02:25:59Z
2022-04-13T00:27:24Z,42.805,6.029,13.2998,4.60033,2470.474,2022-4-13T02:29:02Z
2022-04-13T00:30:27Z,42.805,6.029,13.2998,4.60033,2470.483,2022-4-13T02:32:05Z
2022-04-13T00:33:30Z,42.805,6.029,13.2999,4.60032,2470.46,2022-4-13T02:35:08Z
2022-04-13T00:36:33Z,42.805,6.029,13.3000,4.60033,2470.46,2022-4-13T02:38:11Z
2022-04-13T00:39:36Z,42.805,6.029,13.2999,4.60033,2470.474,2022-4-13T02:41:14Z
2022-04-13T00:42:39Z,42.805,6.029,13.2999,4.60031,2470.427,2022-4-13T02:44:18Z
2022-04-13T00:45:42Z,42.805,6.029,13.2996,4.60031,2470.483,2022-4-13T02:47:21Z
2022-04-13T00:48:46Z,42.805,6.029,13.2998,4.60032,2470.474,2022-4-13T02:50:24Z
2022-04-13T00:51:49Z,42.805,6.029,13.2998,4.60032,2470.483,2022-4-13T02:53:27Z
2022-04-13T00:54:52Z,42.805,6.029,13.2998,4.60032,2470.437,2022-4-13T02:56:30Z
2022-04-13T00:57:55Z,42.805,6.029,13.2999,4.60034,2470.46,2022-4-13T02:59:33Z
2022-04-13T01:00:58Z,42.805,6.029,13.2998,4.60032,2470.46,2022-4-13T03:02:36Z
2022-04-13T01:04:01Z,42.805,6.029,13.2999,4.60032,2470.46,2022-4-13T03:05:39Z
2022-04-13T01:07:04Z,42.805,6.029,13.2998,4.60033,2470.46,2022-4-13T03:08:42Z
2022-04-13T01:10:07Z,42.805,6.029,13.2996,4.60033,2470.483,2022-4-13T03:11:46Z
2022-04-13T01:13:10Z,42.805,6.029,13.2993,4.60033,2470.483,2022-4-13T03:14:49Z
2022-04-13T01:16:14Z,42.805,6.029,13.2996,4.60031,2470.497,2022-4-13T03:17:52Z
2022-04-13T01:19:17Z,42.805,6.029,13.2996,4.60033,2470.52,2022-4-13T03:20:55Z
2022-04-13T01:22:20Z,42.805,6.029,13.2995,4.60031,2470.483,2022-4-13T03:23:58Z
2022-04-13T01:25:23Z,42.805,6.029,13.2998,4.60032,2470.497,2022-4-13T03:27:01Z
2022-04-13T01:28:26Z,42.805,6.029,13.2998,4.60031,2470.497,2022-4-13T03:30:04Z
2022-04-13T01:31:29Z,42.805,6.029,13.2997,4.60032,2470.507,2022-4-13T03:33:07Z
2022-04-13T01:34:32Z,42.805,6.029,13.2998,4.60032,2470.507,2022-4-13T03:36:11Z
2022-04-13T01:37:35Z,42.805,6.029,13.2997,4.60033,2470.497,2022-4-13T03:39:14Z
2022-04-13T01:40:39Z,42.805,6.029,13.2996,4.60032,2470.507,2022-4-13T03:42:17Z
2022-04-13T01:43:42Z,42.805,6.029,13.2996,4.60032,2470.52,2022-4-13T03:45:20Z
2022-04-13T01:46:45Z,42.805,6.029,13.2993,4.60032,2470.52,2022-4-13T03:48:23Z
2022-04-13T01:49:48Z,42.805,6.029,13.2997,4.60033,2470.483,2022-4-13T03:51:26Z
2022-04-13T01:52:51Z,42.805,6.029,13.2997,4.60032,2470.53,2022-4-13T03:54:29Z
2022-04-13T01:55:54Z,42.805,6.029,13.2996,4.60031,2470.507,2022-4-13T03:57:32Z
2022-04-13T01:58:57Z,42.805,6.029,13.2996,4.60031,2470.577,2022-4-13T04:00:35Z
2022-04-13T02:02:00Z,42.805,6.029,13.2996,4.60032,2470.507,2022-4-13T04:03:39Z
2022-04-13T02:05:03Z,42.805,6.029,13.2996,4.60031,2470.553,2022-4-13T04:06:42Z
2022-04-13T02:08:07Z,42.805,6.029,13.2996,4.60031,2470.53,2022-4-13T04:09:45Z
2022-04-13T02:11:10Z,42.805,6.029,13.2999,4.60031,2470.507,2022-4-13T04:12:48Z
2022-04-13T02:14:13Z,42.805,6.029,13.2995,4.60031,2470.53,2022-4-13T04:15:51Z
2022-04-13T02:17:16Z,42.805,6.029,13.3002,4.60033,2470.567,2022-4-13T04:18:54Z
2022-04-13T02:20:19Z,42.805,6.029,13.2998,4.60032,2470.567,2022-4-13T04:21:57Z
2022-04-13T02:23:22Z,42.805,6.029,13.2998,4.60033,2470.544,2022-4-13T04:25:00Z
2022-04-13T02:26:25Z,42.805,6.029,13.3000,4.60033,2470.53,2022-4-13T04:28:04Z
2022-04-13T02:29:28Z,42.805,6.029,13.3000,4.60032,2470.539,2022-4-13T04:31:07Z
2022-04-13T02:32:32Z,42.805,6.029,13.2998,4.60033,2470.553,2022-4-13T04:34:10Z
2022-04-13T02:35:35Z,42.805,6.029,13.2996,4.60031,2470.53,2022-4-13T04:37:13Z
2022-04-13T02:38:38Z,42.805,6.029,13.2997,4.60032,2470.53,2022-4-13T04:40:16Z
2022-04-13T02:41:41Z,42.805,6.029,13.3000,4.60032,2470.53,2022-4-13T04:43:19Z
2022-04-13T02:44:44Z,42.805,6.029,13.2999,4.60032,2470.567,2022-4-13T04:46:22Z
2022-04-13T02:47:47Z,42.805,6.029,13.2997,4.60032,2470.553,2022-4-13T04:49:25Z
2022-04-13T02:50:50Z,42.805,6.029,13.2994,4.60031,2470.553,2022-4-13T04:52:29Z
2022-04-13T02:53:53Z,42.805,6.029,13.2997,4.60032,2470.553,2022-4-13T04:55:32Z
2022-04-13T02:56:57Z,42.805,6.029,13.2996,4.60031,2470.53,2022-4-13T04:58:35Z
2022-04-13T03:00:00Z,42.805,6.029,13.2999,4.60034,2470.544,2022-4-13T05:01:38Z
2022-04-13T03:03:03Z,42.805,6.029,13.2996,4.60031,2470.544,2022-4-13T05:04:41Z
2022-04-13T03:06:06Z,42.805,6.029,13.2998,4.60031,2470.577,2022-4-13T05:07:44Z
2022-04-13T03:09:09Z,42.805,6.029,13.2998,4.60031,2470.553,2022-4-13T05:10:47Z
2022-04-13T03:12:12Z,42.805,6.029,13.2998,4.60031,2470.53,2022-4-13T05:13:50Z
2022-04-13T03:15:15Z,42.805,6.029,13.2999,4.60032,2470.553,2022-4-13T05:16:53Z
2022-04-13T03:18:18Z,42.805,6.029,13.2998,4.60033,2470.553,2022-4-13T05:19:57Z
2022-04-13T03:21:22Z,42.805,6.029,13.3000,4.60032,2470.53,2022-4-13T05:23:00Z
2022-04-13T03:24:25Z,42.805,6.029,13.2998,4.60033,2470.567,2022-4-13T05:26:03Z
2022-04-13T03:27:28Z,42.805,6.029,13.2997,4.60031,2470.553,2022-4-13T05:29:06Z
2022-04-13T03:30:31Z,42.805,6.029,13.2998,4.60032,2470.591,2022-4-13T05:32:09Z
2022-04-13T03:33:34Z,42.805,6.029,13.2996,4.60032,2470.591,2022-4-13T05:35:12Z
2022-04-13T03:36:37Z,42.805,6.029,13.2996,4.60033,2470.6,2022-4-13T05:38:15Z
2022-04-13T03:39:40Z,42.805,6.029,13.2994,4.60032,2470.577,2022-4-13T05:41:18Z
2022-04-13T03:42:43Z,42.805,6.029,13.2997,4.60031,2470.577,2022-4-13T05:44:22Z
2022-04-13T03:45:46Z,42.805,6.029,13.2999,4.60032,2470.577,2022-4-13T05:47:25Z
2022-04-13T03:48:50Z,42.805,6.029,13.2994,4.60031,2470.614,2022-4-13T05:50:28Z
2022-04-13T03:51:53Z,42.805,6.029,13.2997,4.60032,2470.577,2022-4-13T05:53:31Z
2022-04-13T03:54:56Z,42.805,6.029,13.2998,4.60033,2470.577,2022-4-13T05:56:34Z
2022-04-13T03:57:59Z,42.805,6.029,13.2997,4.60033,2470.53,2022-4-13T05:59:37Z
2022-04-13T04:01:02Z,42.805,6.029,13.3001,4.60032,2470.6,2022-4-13T06:02:40Z
2022-04-13T04:04:05Z,42.805,6.029,13.2997,4.60033,2470.6,2022-4-13T06:05:43Z
2022-04-13T04:07:08Z,42.805,6.029,13.2999,4.60034,2470.577,2022-4-13T06:08:47Z
2022-04-13T04:10:11Z,42.805,6.029,13.2998,4.60032,2470.577,2022-4-13T06:11:50Z
2022-04-13T04:13:15Z,42.805,6.029,13.2996,4.60032,2470.61,2022-4-13T06:14:53Z
2022-04-13T04:16:18Z,42.805,6.029,13.2997,4.60033,2470.6,2022-4-13T06:17:56Z
2022-04-13T04:19:21Z,42.805,6.029,13.2995,4.60033,2470.6,2022-4-13T06:20:59Z
2022-04-13T04:22:24Z,42.805,6.029,13.2998,4.60032,2470.6,2022-4-13T06:24:02Z
2022-04-13T04:25:27Z,42.805,6.029,13.3000,4.60032,2470.61,2022-4-13T06:27:05Z
2022-04-13T04:28:30Z,42.805,6.029,13.2995,4.60032,2470.6,2022-4-13T06:30:08Z
2022-04-13T04:31:33Z,42.805,6.029,13.2996,4.60032,2470.6,2022-4-13T06:33:12Z
2022-04-13T04:34:36Z,42.805,6.029,13.3000,4.60033,2470.614,2022-4-13T06:36:15Z
2022-04-13T04:37:40Z,42.805,6.029,13.2998,4.60032,2470.614,2022-4-13T06:39:18Z
2022-04-13T04:40:43Z,42.805,6.029,13.2998,4.60032,2470.6,2022-4-13T06:42:21Z
2022-04-13T04:43:46Z,42.805,6.029,13.2996,4.60033,2470.6,2022-4-13T06:45:24Z
2022-04-13T04:46:49Z,42.805,6.029,13.2994,4.60032,2470.6,2022-4-13T06:48:27Z
2022-04-13T04:49:52Z,42.805,6.029,13.3001,4.60033,2470.6,2022-4-13T06:51:30Z
2022-04-13T04:52:55Z,42.805,6.029,13.3000,4.60032,2470.577,2022-4-13T06:54:33Z
2022-04-13T04:55:58Z,42.805,6.029,13.2999,4.60032,2470.6,2022-4-13T06:57:36Z
2022-04-13T04:59:01Z,42.805,6.029,13.2997,4.60033,2470.646,2022-4-13T07:00:40Z
2022-04-13T05:02:05Z,42.805,6.029,13.2998,4.60032,2470.577,2022-4-13T07:03:43Z
2022-04-13T05:05:08Z,42.805,6.029,13.2998,4.60032,2470.661,2022-4-13T07:06:46Z
2022-04-13T05:08:11Z,42.805,6.029,13.2996,4.60032,2470.614,2022-4-13T07:09:49Z
2022-04-13T05:11:14Z,42.805,6.029,13.2995,4.60032,2470.586,2022-4-13T07:12:52Z
2022-04-13T05:14:17Z,42.805,6.029,13.2994,4.60033,2470.577,2022-4-13T07:15:55Z
2022-04-13T05:17:20Z,42.805,6.029,13.2996,4.60033,2470.6,2022-4-13T07:18:58Z
2022-04-13T05:20:23Z,42.805,6.029,13.2997,4.60033,2470.53,2022-4-13T07:22:01Z
2022-04-13T05:23:26Z,42.805,6.029,13.2997,4.60032,2470.6,2022-4-13T07:25:05Z
2022-04-13T05:26:29Z,42.805,6.029,13.2998,4.60031,2470.614,2022-4-13T07:28:08Z
2022-04-13T05:29:33Z,42.805,6.029,13.2993,4.60031,2470.6,2022-4-13T07:31:11Z
2022-04-13T05:32:36Z,42.805,6.029,13.2998,4.60032,2470.6,2022-4-13T07:34:14Z
2022-04-13T05:35:39Z,42.805,6.029,13.2996,4.60032,2470.624,2022-4-13T07:37:17Z
2022-04-13T05:38:42Z,42.805,6.029,13.2997,4.60032,2470.577,2022-4-13T07:40:20Z
2022-04-13T05:41:45Z,42.805,6.029,13.2998,4.60035,2470.61,2022-4-13T07:43:23Z
2022-04-13T05:44:48Z,42.805,6.029,13.2996,4.60033,2470.6,2022-4-13T07:46:26Z
2022-04-13T05:47:51Z,42.805,6.029,13.2998,4.60032,2470.614,2022-4-13T07:49:30Z
2022-04-13T05:50:54Z,42.805,6.029,13.2994,4.60032,2470.6,2022-4-13T07:52:33Z
2022-04-13T05:53:58Z,42.805,6.029,13.2994,4.60031,2470.646,2022-4-13T07:55:36Z
2022-04-13T05:57:01Z,42.805,6.029,13.2998,4.60031,2470.6,2022-4-13T07:58:39Z
2022-04-13T06:00:04Z,42.805,6.029,13.2996,4.60032,2470.624,2022-4-13T08:01:42Z
2022-04-13T06:03:07Z,42.805,6.029,13.2997,4.60032,2470.6,2022-4-13T08:04:45Z
2022-04-13T06:06:10Z,42.805,6.029,13.2996,4.60032,2470.624,2022-4-13T08:07:48Z
2022-04-13T06:09:13Z,42.805,6.029,13.2997,4.60032,2470.6,2022-4-13T08:10:51Z
2022-04-13T06:12:16Z,42.805,6.029,13.2996,4.60033,2470.624,2022-4-13T08:13:55Z
2022-04-13T06:15:19Z,42.805,6.029,13.2995,4.60032,2470.624,2022-4-13T08:16:58Z
2022-04-13T06:18:23Z,42.805,6.029,13.2999,4.60033,2470.6,2022-4-13T08:20:01Z
2022-04-13T06:21:26Z,42.805,6.029,13.2995,4.60032,2470.6,2022-4-13T08:23:04Z
2022-04-13T06:24:29Z,42.805,6.029,13.2997,4.60031,2470.637,2022-4-13T08:26:07Z
2022-04-13T06:27:32Z,42.805,6.029,13.2996,4.60033,2470.553,2022-4-13T08:29:10Z
2022-04-13T06:30:35Z,42.805,6.029,13.2999,4.60032,2470.6,2022-4-13T08:32:13Z
2022-04-13T06:33:38Z,42.805,6.029,13.2997,4.60032,2470.614,2022-4-13T08:35:16Z
2022-04-13T06:36:41Z,42.805,6.029,13.2997,4.60032,2470.6,2022-4-13T08:38:19Z
2022-04-13T06:39:44Z,42.805,6.029,13.2997,4.60033,2470.553,2022-4-13T08:41:23Z
2022-04-13T06:42:47Z,42.805,6.029,13.2995,4.60032,2470.6,2022-4-13T08:44:26Z
2022-04-13T06:45:51Z,42.805,6.029,13.3000,4.60032,2470.591,2022-4-13T08:47:29Z
2022-04-13T06:48:54Z,42.805,6.029,13.2999,4.60033,2470.553,2022-4-13T08:50:32Z
2022-04-13T06:51:57Z,42.805,6.029,13.3004,4.60033,2470.6,2022-4-13T08:53:35Z
2022-04-13T06:55:00Z,42.805,6.029,13.2998,4.60032,2470.553,2022-4-13T08:56:38Z
2022-04-13T06:58:03Z,42.805,6.029,13.2997,4.60033,2470.553,2022-4-13T08:59:41Z
2022-04-13T07:01:06Z,42.805,6.029,13.2998,4.60031,2470.577,2022-4-13T09:02:44Z
2022-04-13T07:04:09Z,42.805,6.029,13.3000,4.60033,2470.591,2022-4-13T09:05:48Z
2022-04-13T07:07:12Z,42.805,6.029,13.2996,4.60032,2470.553,2022-4-13T09:08:51Z
2022-04-13T07:10:16Z,42.805,6.029,13.2996,4.60032,2470.53,2022-4-13T09:11:54Z
2022-04-13T07:13:19Z,42.805,6.029,13.2996,4.60032,2470.553,2022-4-13T09:14:57Z
2022-04-13T07:16:22Z,42.805,6.029,13.2997,4.60031,2470.553,2022-4-13T09:18:00Z
2022-04-13T07:19:25Z,42.805,6.029,13.2998,4.60033,2470.553,2022-4-13T09:21:03Z
2022-04-13T07:22:28Z,42.805,6.029,13.2997,4.60032,2470.544,2022-4-13T09:24:06Z
2022-04-13T07:25:31Z,42.805,6.029,13.2996,4.60032,2470.577,2022-4-13T09:27:09Z
2022-04-13T07:28:34Z,42.805,6.029,13.2996,4.60032,2470.52,2022-4-13T09:30:13Z
2022-04-13T07:31:37Z,42.805,6.029,13.2996,4.60032,2470.52,2022-4-13T09:33:16Z
2022-04-13T07:34:41Z,42.805,6.029,13.2996,4.60031,2470.483,2022-4-13T09:36:19Z
2022-04-13T07:37:44Z,42.805,6.029,13.2999,4.60032,2470.553,2022-4-13T09:39:22Z
2022-04-13T07:40:47Z,42.805,6.029,13.3002,4.60032,2470.507,2022-4-13T09:42:25Z
2022-04-13T07:43:50Z,42.805,6.029,13.2996,4.60032,2470.507,2022-4-13T09:45:28Z
2022-04-13T07:46:53Z,42.805,6.029,13.2994,4.60031,2470.52,2022-4-13T09:48:31Z
2022-04-13T07:49:56Z,42.805,6.029,13.2998,4.60032,2470.507,2022-4-13T09:51:34Z
2022-04-13T07:52:59Z,42.805,6.029,13.2998,4.60032,2470.497,2022-4-13T09:54:38Z
2022-04-13T07:56:02Z,42.805,6.029,13.2996,4.60033,2470.544,2022-4-13T09:57:41Z
2022-04-13T07:59:06Z,42.805,6.029,13.2997,4.60032,2470.483,2022-4-13T10:00:44Z
2022-04-13T08:02:09Z,42.805,6.029,13.2996,4.60031,2470.483,2022-4-13T10:03:47Z
2022-04-13T08:05:12Z,42.805,6.029,13.3000,4.60033,2470.46,2022-4-13T10:06:50Z
2022-04-13T08:08:15Z,42.805,6.029,13.2998,4.60033,2470.507,2022-4-13T10:09:53Z
2022-04-13T08:11:18Z,42.805,6.029,13.2998,4.60032,2470.46,2022-4-13T10:12:56Z
2022-04-13T08:14:21Z,42.805,6.029,13.3001,4.60032,2470.483,2022-4-13T10:15:59Z
2022-04-13T08:17:24Z,42.805,6.029,13.2997,4.60033,2470.437,2022-4-13T10:19:03Z
2022-04-13T08:20:27Z,42.805,6.029,13.2996,4.60033,2470.483,2022-4-13T10:22:06Z
2022-04-13T08:23:30Z,42.805,6.029,13.2996,4.60033,2470.52,2022-4-13T10:25:09Z
2022-04-13T08:26:34Z,42.805,6.029,13.2997,4.60033,2470.483,2022-4-13T10:28:12Z
2022-04-13T08:29:37Z,42.805,6.029,13.2993,4.60033,2470.46,2022-4-13T10:31:15Z
2022-04-13T08:32:40Z,42.805,6.029,13.2998,4.60033,2470.474,2022-4-13T10:34:18Z
2022-04-13T08:35:43Z,42.805,6.029,13.2996,4.60033,2470.497,2022-4-13T10:37:21Z
2022-04-13T08:38:46Z,42.805,6.029,13.2999,4.60034,2470.437,2022-4-13T10:40:24Z
2022-04-13T08:41:49Z,42.805,6.029,13.3000,4.60033,2470.497,2022-4-13T10:43:28Z
2022-04-13T08:44:52Z,42.805,6.029,13.2995,4.60033,2470.413,2022-4-13T10:46:31Z
2022-04-13T08:47:56Z,42.805,6.029,13.2995,4.60033,2470.437,2022-4-13T10:49:34Z
2022-04-13T08:50:59Z,42.805,6.029,13.2998,4.60032,2470.437,2022-4-13T10:52:37Z
2022-04-13T08:54:02Z,42.805,6.029,13.2998,4.60032,2470.46,2022-4-13T10:55:40Z
2022-04-13T08:57:05Z,42.805,6.029,13.2997,4.60032,2470.437,2022-4-13T10:58:43Z
2022-04-13T09:00:08Z,42.805,6.029,13.2997,4.60033,2470.413,2022-4-13T11:01:46Z
2022-04-13T09:03:11Z,42.805,6.029,13.2995,4.60033,2470.474,2022-4-13T11:04:49Z
2022-04-13T09:06:14Z,42.805,6.029,13.2998,4.60033,2470.45,2022-4-13T11:07:53Z
2022-04-13T09:09:17Z,42.805,6.029,13.2998,4.60033,2470.413,2022-4-13T11:10:56Z
2022-04-13T09:12:21Z,42.805,6.029,13.2997,4.60034,2470.413,2022-4-13T11:13:59Z
2022-04-13T09:15:24Z,42.805,6.029,13.2998,4.60032,2470.45,2022-4-13T11:17:02Z
2022-04-13T09:18:27Z,42.805,6.029,13.2996,4.60033,2470.39,2022-4-13T11:20:05Z
2022-04-13T09:21:30Z,42.805,6.029,13.2996,4.60033,2470.39,2022-4-13T11:23:08Z
2022-04-13T09:24:33Z,42.805,6.029,13.2999,4.60031,2470.39,2022-4-13T11:26:11Z
2022-04-13T09:27:36Z,42.805,6.029,13.2996,4.60032,2470.45,2022-4-13T11:29:14Z
2022-04-13T09:30:39Z,42.805,6.029,13.2996,4.60033,2470.413,2022-4-13T11:32:18Z
2022-04-13T09:33:42Z,42.805,6.029,13.2998,4.60033,2470.437,2022-4-13T11:35:21Z
2022-04-13T09:36:46Z,42.805,6.029,13.2994,4.60032,2470.427,2022-4-13T11:38:24Z
2022-04-13T09:39:49Z,42.805,6.029,13.2998,4.60033,2470.413,2022-4-13T11:41:27Z
2022-04-13T09:42:52Z,42.805,6.029,13.2994,4.60033,2470.404,2022-4-13T11:44:30Z
2022-04-13T09:45:55Z,42.805,6.029,13.2996,4.60033,2470.39,2022-4-13T11:47:33Z
2022-04-13T09:48:58Z,42.805,6.029,13.2998,4.60034,2470.38,2022-4-13T11:50:36Z
2022-04-13T09:52:01Z,42.805,6.029,13.2998,4.60032,2470.38,2022-4-13T11:53:39Z
2022-04-13T09:55:04Z,42.805,6.029,13.2998,4.60032,2470.39,2022-4-13T11:56:43Z
2022-04-13T09:58:07Z,42.805,6.029,13.2997,4.60033,2470.366,2022-4-13T11:59:46Z
2022-04-13T10:01:11Z,42.805,6.029,13.2997,4.60033,2470.39,2022-4-13T12:02:49Z
2022-04-13T10:04:14Z,42.805,6.029,13.2996,4.60034,2470.427,2022-4-13T12:05:52Z
2022-04-13T10:07:17Z,42.805,6.029,13.2996,4.60033,2470.39,2022-4-13T12:08:55Z
2022-04-13T10:10:20Z,42.805,6.029,13.2997,4.60033,2470.366,2022-4-13T12:11:58Z
2022-04-13T10:13:23Z,42.805,6.029,13.2998,4.60033,2470.366,2022-4-13T12:15:01Z
2022-04-13T10:16:26Z,42.805,6.029,13.2994,4.60032,2470.357,2022-4-13T12:18:04Z
2022-04-13T10:19:29Z,42.805,6.029,13.2998,4.60031,2470.39,2022-4-13T12:21:08Z
2022-04-13T10:22:32Z,42.805,6.029,13.2998,4.60032,2470.343,2022-4-13T12:24:11Z
2022-04-13T10:25:36Z,42.805,6.029,13.2995,4.60034,2470.38,2022-4-13T12:27:14Z
2022-04-13T10:28:39Z,42.805,6.029,13.3003,4.60032,2470.404,2022-4-13T12:30:17Z
2022-04-13T10:31:42Z,42.805,6.029,13.2998,4.60032,2470.357,2022-4-13T12:33:20Z
2022-04-13T10:34:45Z,42.805,6.029,13.2996,4.60032,2470.357,2022-4-13T12:36:23Z
2022-04-13T10:37:48Z,42.805,6.029,13.2995,4.60033,2470.343,2022-4-13T12:39:26Z
2022-04-13T10:40:51Z,42.805,6.029,13.2998,4.60033,2470.38,2022-4-13T12:42:29Z
2022-04-13T10:43:54Z,42.805,6.029,13.2995,4.60032,2470.343,2022-4-13T12:45:33Z
2022-04-13T10:46:57Z,42.805,6.029,13.2996,4.60033,2470.343,2022-4-13T12:48:36Z
2022-04-13T10:50:01Z,42.805,6.029,13.2999,4.60032,2470.366,2022-4-13T12:51:39Z
2022-04-13T10:53:04Z,42.805,6.029,13.2996,4.60035,2470.357,2022-4-13T12:54:42Z
2022-04-13T10:56:07Z,42.805,6.029,13.3000,4.60033,2470.343,2022-4-13T12:57:45Z
2022-04-13T10:59:10Z,42.805,6.029,13.3000,4.60033,2470.306,2022-4-13T13:00:48Z
2022-04-13T11:02:13Z,42.805,6.029,13.2995,4.60032,2470.32,2022-4-13T13:03:51Z
2022-04-13T11:05:16Z,42.805,6.029,13.2994,4.60032,2470.334,2022-4-13T13:06:54Z
2022-04-13T11:08:19Z,42.805,6.029,13.2996,4.60032,2470.357,2022-4-13T13:09:58Z
2022-04-13T11:11:22Z,42.805,6.029,13.3000,4.60033,2470.297,2022-4-13T13:13:01Z
2022-04-13T11:14:26Z,42.805,6.029,13.2997,4.60032,2470.334,2022-4-13T13:16:04Z
2022-04-13T11:17:29Z,42.805,6.029,13.3000,4.60033,2470.32,2022-4-13T13:19:07Z
2022-04-13T11:20:32Z,42.805,6.029,13.2999,4.60034,2470.32,2022-4-13T13:22:10Z
2022-04-13T11:23:35Z,42.805,6.029,13.2994,4.60033,2470.32,2022-4-13T13:25:13Z
2022-04-13T11:26:38Z,42.805,6.029,13.3000,4.60032,2470.343,2022-4-13T13:28:16Z
2022-04-13T11:29:41Z,42.805,6.029,13.3000,4.60033,2470.32,2022-4-13T13:31:19Z
2022-04-13T11:32:44Z,42.805,6.029,13.3000,4.60031,2470.297,2022-4-13T13:34:23Z
2022-04-13T11:35:47Z,42.805,6.029,13.2998,4.60033,2470.343,2022-4-13T13:37:26Z
2022-04-13T11:38:51Z,42.805,6.029,13.2998,4.60032,2470.343,2022-4-13T13:40:29Z
2022-04-13T11:41:54Z,42.805,6.029,13.3001,4.60033,2470.32,2022-4-13T13:43:32Z
2022-04-13T11:44:57Z,42.805,6.029,13.2998,4.60032,2470.273,2022-4-13T13:46:35Z
2022-04-13T11:48:00Z,42.805,6.029,13.3001,4.60032,2470.297,2022-4-13T13:49:38Z
2022-04-13T11:51:03Z,42.805,6.029,13.2997,4.60033,2470.297,2022-4-13T13:52:41Z
2022-04-13T11:54:06Z,42.805,6.029,13.2997,4.60033,2470.366,2022-4-13T13:55:44Z
2022-04-13T11:57:09Z,42.805,6.029,13.2998,4.60033,2470.31,2022-4-13T13:58:48Z
2022-04-13T12:00:13Z,42.805,6.029,13.2998,4.60032,2470.32,2022-4-13T14:01:51Z
2022-04-13T12:03:16Z,42.805,6.029,13.2999,4.60032,2470.32,2022-4-13T14:04:54Z
2022-04-13T12:06:19Z,42.805,6.029,13.2996,4.60032,2470.297,2022-4-13T14:07:57Z
2022-04-13T12:09:22Z,42.805,6.029,13.2998,4.60034,2470.334,2022-4-13T14:11:00Z
2022-04-13T12:12:25Z,42.805,6.029,13.2997,4.60033,2470.343,2022-4-13T14:14:03Z
2022-04-13T12:15:28Z,42.805,6.029,13.2997,4.60033,2470.32,2022-4-13T14:17:06Z
2022-04-13T12:18:31Z,42.805,6.029,13.2998,4.60032,2470.343,2022-4-13T14:20:09Z
2022-04-13T12:21:34Z,42.805,6.029,13.2996,4.60033,2470.357,2022-4-13T14:23:13Z
2022-04-13T12:24:37Z,42.805,6.029,13.2996,4.60032,2470.297,2022-4-13T14:26:16Z
2022-04-13T12:27:41Z,42.805,6.029,13.2997,4.60033,2470.297,2022-4-13T14:29:19Z
2022-04-13T12:30:44Z,42.805,6.029,13.2998,4.60032,2470.297,2022-4-13T14:32:22Z
2022-04-13T12:33:47Z,42.805,6.029,13.3002,4.60033,2470.32,2022-4-13T14:35:25Z
2022-04-13T12:36:50Z,42.805,6.029,13.3000,4.60032,2470.334,2022-4-13T14:38:28Z
2022-04-13T12:39:53Z,42.805,6.029,13.2999,4.60033,2470.334,2022-4-13T14:41:31Z
2022-04-13T12:42:56Z,42.805,6.029,13.3001,4.60033,2470.32,2022-4-13T14:44:34Z
2022-04-13T12:45:59Z,42.805,6.029,13.2998,4.60033,2470.334,2022-4-13T14:47:38Z
2022-04-13T12:49:02Z,42.805,6.029,13.3001,4.60033,2470.32,2022-4-13T14:50:41Z
2022-04-13T12:52:06Z,42.805,6.029,13.2993,4.60033,2470.32,2022-4-13T14:53:44Z
2022-04-13T12:55:09Z,42.805,6.029,13.2999,4.60033,2470.32,2022-4-13T14:56:47Z
2022-04-13T12:58:12Z,42.805,6.029,13.3003,4.60033,2470.32,2022-4-13T14:59:50Z
2022-04-13T13:01:15Z,42.805,6.029,13.2996,4.60033,2470.33,2022-4-13T15:02:53Z
2022-04-13T13:04:18Z,42.805,6.029,13.3000,4.60033,2470.32,2022-4-13T15:05:56Z
2022-04-13T13:07:21Z,42.805,6.029,13.2998,4.60033,2470.357,2022-4-13T15:09:00Z
2022-04-13T13:10:24Z,42.805,6.029,13.2996,4.60033,2470.334,2022-4-13T15:12:03Z
2022-04-13T13:13:28Z,42.805,6.029,13.2999,4.60033,2470.343,2022-4-13T15:15:06Z
2022-04-13T13:16:31Z,42.805,6.029,13.2996,4.60034,2470.32,2022-4-13T15:18:09Z
2022-04-13T13:19:34Z,42.805,6.029,13.2998,4.60033,2470.357,2022-4-13T15:21:12Z
2022-04-13T13:22:37Z,42.805,6.029,13.2996,4.60033,2470.357,2022-4-13T15:24:15Z
2022-04-13T13:25:40Z,42.805,6.029,13.2996,4.60033,2470.366,2022-4-13T15:27:18Z
2022-04-13T13:28:43Z,42.805,6.029,13.2996,4.60033,2470.32,2022-4-13T15:30:21Z
2022-04-13T13:31:46Z,42.805,6.029,13.2998,4.60033,2470.366,2022-4-13T15:33:25Z
2022-04-13T13:34:49Z,42.805,6.029,13.2996,4.60034,2470.334,2022-4-13T15:36:28Z
2022-04-13T13:37:53Z,42.805,6.029,13.2995,4.60033,2470.38,2022-4-13T15:39:31Z
2022-04-13T13:40:56Z,42.805,6.029,13.2998,4.60033,2470.343,2022-4-13T15:42:34Z
2022-04-13T13:43:59Z,42.805,6.029,13.2998,4.60033,2470.343,2022-4-13T15:45:37Z
2022-04-13T13:47:02Z,42.805,6.029,13.2999,4.60033,2470.32,2022-4-13T15:48:40Z
2022-04-13T13:50:05Z,42.805,6.029,13.2999,4.60033,2470.343,2022-4-13T15:51:43Z
2022-04-13T13:53:08Z,42.805,6.029,13.2996,4.60033,2470.366,2022-4-13T15:54:46Z
2022-04-13T13:56:11Z,42.805,6.029,13.2998,4.60033,2470.39,2022-4-13T15:57:50Z
2022-04-13T13:59:14Z,42.805,6.029,13.2996,4.60033,2470.366,2022-4-13T16:00:53Z
2022-04-13T14:02:18Z,42.805,6.029,13.2998,4.60033,2470.366,2022-4-13T16:03:56Z
2022-04-13T14:05:21Z,42.805,6.029,13.2998,4.60033,2470.366,2022-4-13T16:06:59Z
2022-04-13T14:08:24Z,42.805,6.029,13.2996,4.60033,2470.38,2022-4-13T16:10:02Z
2022-04-13T14:11:27Z,42.805,6.029,13.3003,4.60033,2470.38,2022-4-13T16:13:05Z
2022-04-13T14:14:30Z,42.805,6.029,13.2998,4.60033,2470.366,2022-4-13T16:16:08Z
2022-04-13T14:17:33Z,42.805,6.029,13.2996,4.60033,2470.38,2022-4-13T16:19:11Z
2022-04-13T14:20:36Z,42.805,6.029,13.3000,4.60033,2470.38,2022-4-13T16:22:15Z
2022-04-13T14:23:39Z,42.805,6.029,13.2998,4.60033,2470.404,2022-4-13T16:25:18Z
2022-04-13T14:26:43Z,42.805,6.029,13.2999,4.60034,2470.404,2022-4-13T16:28:21Z
2022-04-13T14:29:46Z,42.805,6.029,13.2999,4.60033,2470.39,2022-4-13T16:31:24Z
2022-04-13T14:32:49Z,42.805,6.029,13.2999,4.60034,2470.404,2022-4-13T16:34:27Z
2022-04-13T14:35:52Z,42.805,6.029,13.2997,4.60034,2470.404,2022-4-13T16:37:30Z
2022-04-13T14:38:55Z,42.805,6.029,13.2996,4.60033,2470.39,2022-4-13T16:40:33Z
2022-04-13T14:41:58Z,42.805,6.029,13.3000,4.60033,2470.404,2022-4-13T16:43:36Z
2022-04-13T14:45:01Z,42.805,6.029,13.2999,4.60034,2470.39,2022-4-13T16:46:40Z
2022-04-13T14:48:04Z,42.805,6.029,13.2999,4.60034,2470.413,2022-4-13T16:49:43Z
2022-04-13T14:51:08Z,42.805,6.029,13.2998,4.60033,2470.437,2022-4-13T16:52:46Z
2022-04-13T14:54:11Z,42.805,6.029,13.3000,4.60033,2470.39,2022-4-13T16:55:49Z
2022-04-13T14:57:14Z,42.805,6.029,13.2998,4.60033,2470.437,2022-4-13T16:58:52Z
2022-04-13T15:00:17Z,42.805,6.029,13.3000,4.60033,2470.45,2022-4-13T17:01:55Z
2022-04-13T15:03:20Z,42.805,6.029,13.2998,4.60033,2470.39,2022-4-13T17:04:58Z
2022-04-13T15:06:23Z,42.805,6.029,13.3000,4.60033,2470.413,2022-4-13T17:08:01Z
2022-04-13T15:09:26Z,42.805,6.029,13.3003,4.60034,2470.404,2022-4-13T17:11:05Z
2022-04-13T15:12:29Z,42.805,6.029,13.3001,4.60034,2470.413,2022-4-13T17:14:08Z
2022-04-13T15:15:33Z,42.805,6.029,13.2996,4.60034,2470.404,2022-4-13T17:17:11Z